• In Russia
  • List of Countries
  • For 7 days
  • Water Temperature
  • Weather Map
  • Weather Widgets
  • user-avatar
    Login

    Hourly Weather Giumri

    Today, 4 April, Saturday

    Time Temperature Precipitation Wind Pressure Humidity
    00:00 +6°C° 0.5 mm 1 mps 631 mmHg 91%
    01:00 +5°C° 0.4 mm 1 mps 631 mmHg 92%
    02:00 +5°C° 0.4 mm 1 mps 631 mmHg 93%
    03:00 +5°C° 0 mm 1 mps 631 mmHg 96%
    04:00 +5°C° 0.6 mm 1 mps 631 mmHg 95%
    05:00 +4°C° 0.6 mm 0 mps 631 mmHg 95%
    06:00 +4°C° 0.6 mm 0 mps 631 mmHg 94%
    07:00 +5°C° 1 mm 1 mps 632 mmHg 93%
    08:00 +4°C° 1 mm 2 mps 632 mmHg 92%
    09:00 +3°C° 0 mm 3 mps 632 mmHg 92%
    10:00 +3°C° 1.1 mm 3 mps 633 mmHg 90%
    11:00 +4°C° 1.1 mm 3 mps 633 mmHg 87%
    12:00 +4°C° 1.1 mm 3 mps 633 mmHg 84%
    13:00 +4°C° 0.1 mm 3 mps 633 mmHg 82%
    14:00 +5°C° 0.1 mm 3 mps 633 mmHg 79%
    15:00 +5°C° 0.1 mm 3 mps 634 mmHg 76%
    16:00 +5°C° 0 mm 3 mps 634 mmHg 78%
    17:00 +5°C° 0 mm 2 mps 634 mmHg 79%
    18:00 +5°C° 0 mm 2 mps 634 mmHg 80%
    19:00 +4°C° 0 mm 2 mps 634 mmHg 80%
    20:00 +3°C° 0 mm 2 mps 635 mmHg 81%
    21:00 +3°C° 0 mm 1 mps 635 mmHg 82%
    22:00 +3°C° 0 mm 1 mps 635 mmHg 80%
    23:00 +3°C° 0 mm 1 mps 635 mmHg 79%

    Tomorrow, 5 April, Sunday

    Time Temperature Precipitation Wind Pressure Humidity
    00:00 +2°C° 0 mm 1 mps 635 mmHg 77%
    01:00 +2°C° 0 mm 1 mps 635 mmHg 77%
    02:00 +2°C° 0 mm 1 mps 635 mmHg 76%
    03:00 +2°C° 0 mm 1 mps 635 mmHg 76%
    04:00 +2°C° 0 mm 1 mps 635 mmHg 75%
    05:00 +2°C° 0 mm 1 mps 635 mmHg 75%
    06:00 +1°C° 0 mm 1 mps 635 mmHg 75%
    07:00 +3°C° 0 mm 1 mps 635 mmHg 73%
    08:00 +5°C° 0 mm 1 mps 636 mmHg 71%
    09:00 +6°C° 0 mm 1 mps 636 mmHg 69%
    10:00 +7°C° 0 mm 1 mps 636 mmHg 67%
    11:00 +9°C° 0 mm 1 mps 636 mmHg 65%
    12:00 +9°C° 0 mm 2 mps 636 mmHg 64%
    13:00 +9°C° 0 mm 2 mps 636 mmHg 62%
    14:00 +10°C° 0 mm 3 mps 636 mmHg 59%
    15:00 +10°C° 0 mm 3 mps 635 mmHg 57%
    16:00 +10°C° 0 mm 3 mps 635 mmHg 58%
    17:00 +9°C° 0 mm 3 mps 635 mmHg 59%
    18:00 +8°C° 0 mm 3 mps 634 mmHg 61%
    19:00 +8°C° 0 mm 2 mps 635 mmHg 62%
    20:00 +7°C° 0 mm 2 mps 635 mmHg 63%
    21:00 +8°C° 0 mm 1 mps 635 mmHg 65%
    22:00 +8°C° 0 mm 1 mps 634 mmHg 68%
    23:00 +7°C° 0 mm 2 mps 634 mmHg 72%

    Day after tomorrow, 6 April, Monday

    Time Temperature Precipitation Wind Pressure Humidity
    00:00 +7°C° 0 mm 2 mps 634 mmHg 76%
    01:00 +7°C° 0.5 mm 1 mps 634 mmHg 80%
    02:00 +7°C° 0.5 mm 1 mps 634 mmHg 84%
    03:00 +7°C° 0.5 mm 1 mps 633 mmHg 88%
    04:00 +7°C° 0.1 mm 1 mps 633 mmHg 88%
    05:00 +7°C° 0.1 mm 1 mps 633 mmHg 88%
    06:00 +7°C° 0.1 mm 1 mps 633 mmHg 89%
    07:00 +7°C° 0.1 mm 2 mps 634 mmHg 85%
    08:00 +7°C° 0.1 mm 2 mps 634 mmHg 82%
    09:00 +8°C° 0.1 mm 3 mps 634 mmHg 79%
    10:00 +9°C° 0 mm 3 mps 634 mmHg 77%
    11:00 +10°C° 0 mm 3 mps 635 mmHg 76%
    12:00 +10°C° 0 mm 3 mps 635 mmHg 74%
    13:00 +10°C° 0.1 mm 3 mps 635 mmHg 77%
    14:00 +9°C° 0.1 mm 2 mps 634 mmHg 80%
    15:00 +9°C° 0.1 mm 2 mps 634 mmHg 82%
    16:00 +9°C° 0.1 mm 2 mps 634 mmHg 83%
    17:00 +9°C° 0.1 mm 1 mps 634 mmHg 85%
    18:00 +9°C° 0.1 mm 1 mps 634 mmHg 86%
    19:00 +8°C° 0.1 mm 1 mps 634 mmHg 86%
    20:00 +7°C° 0.1 mm 2 mps 634 mmHg 85%
    21:00 +6°C° 0.1 mm 2 mps 634 mmHg 85%
    22:00 +6°C° 0.1 mm 2 mps 634 mmHg 84%
    23:00 +6°C° 0.1 mm 2 mps 634 mmHg 83%

    7 April, Tuesday

    Time Temperature Precipitation Wind Pressure Humidity
    00:00 +5°C° 0.1 mm 2 mps 634 mmHg 82%
    01:00 +5°C° 0.2 mm 2 mps 634 mmHg 83%
    02:00 +5°C° 0.2 mm 2 mps 634 mmHg 85%
    03:00 +4°C° 0.2 mm 2 mps 633 mmHg 87%
    04:00 +3°C° 0.3 mm 3 mps 634 mmHg 87%
    05:00 +3°C° 0.3 mm 3 mps 634 mmHg 88%
    06:00 +3°C° 0.3 mm 3 mps 634 mmHg 88%
    07:00 +3°C° 0.1 mm 3 mps 634 mmHg 84%
    08:00 +3°C° 0.1 mm 4 mps 634 mmHg 79%
    09:00 +3°C° 0.1 mm 4 mps 634 mmHg 75%
    10:00 +4°C° 0 mm 4 mps 634 mmHg 73%
    11:00 +4°C° 0 mm 4 mps 634 mmHg 71%
    12:00 +4°C° 0 mm 4 mps 635 mmHg 69%
    13:00 +4°C° 0 mm 4 mps 634 mmHg 68%
    14:00 +4°C° 0 mm 4 mps 634 mmHg 68%
    15:00 +4°C° 0 mm 4 mps 634 mmHg 67%
    16:00 +3°C° 0 mm 4 mps 634 mmHg 69%
    17:00 +2°C° 0 mm 3 mps 634 mmHg 72%
    18:00 +2°C° 0 mm 3 mps 634 mmHg 74%
    19:00 +1°C° 0 mm 3 mps 634 mmHg 75%
    20:00 0°C° 0 mm 3 mps 634 mmHg 77%
    21:00 0°C° 0 mm 3 mps 634 mmHg 79%
    22:00 -1°C° 0 mm 3 mps 634 mmHg 79%
    23:00 -1°C° 0 mm 3 mps 634 mmHg 79%

    8 April, Wednesday

    Time Temperature Precipitation Wind Pressure Humidity
    00:00 -1°C° 0 mm 3 mps 634 mmHg 79%
    01:00 -2°C° 0 mm 3 mps 634 mmHg 79%
    02:00 -2°C° 0 mm 3 mps 634 mmHg 78%
    03:00 -2°C° 0 mm 3 mps 634 mmHg 77%
    04:00 -2°C° 0 mm 3 mps 634 mmHg 77%
    05:00 -2°C° 0 mm 3 mps 634 mmHg 76%
    06:00 -2°C° 0 mm 3 mps 635 mmHg 75%
    07:00 -1°C° 0 mm 3 mps 635 mmHg 71%
    08:00 0°C° 0 mm 3 mps 635 mmHg 67%
    09:00 +1°C° 0 mm 3 mps 636 mmHg 63%
    10:00 +2°C° 0 mm 3 mps 636 mmHg 62%
    11:00 +3°C° 0 mm 3 mps 636 mmHg 60%
    12:00 +4°C° 0 mm 3 mps 636 mmHg 58%
    13:00 +4°C° 0 mm 3 mps 635 mmHg 59%
    14:00 +5°C° 0 mm 3 mps 635 mmHg 59%
    15:00 +5°C° 0 mm 3 mps 634 mmHg 60%
    16:00 +4°C° 0 mm 3 mps 634 mmHg 63%
    17:00 +3°C° 0 mm 3 mps 633 mmHg 67%
    18:00 +2°C° 0 mm 3 mps 633 mmHg 70%
    19:00 +1°C° 0 mm 3 mps 633 mmHg 73%
    20:00 +2°C° 0 mm 2 mps 633 mmHg 76%
    21:00 +1°C° 0 mm 2 mps 633 mmHg 79%
    22:00 +1°C° 0 mm 2 mps 633 mmHg 80%
    23:00 +1°C° 0 mm 1 mps 633 mmHg 82%

    9 April, Thursday

    Time Temperature Precipitation Wind Pressure Humidity
    00:00 +1°C° 0 mm 1 mps 633 mmHg 83%
    01:00 +1°C° 0 mm 1 mps 632 mmHg 83%
    02:00 +1°C° 0 mm 1 mps 632 mmHg 84%
    03:00 +1°C° 0 mm 1 mps 631 mmHg 84%
    04:00 0°C° 0 mm 0 mps 631 mmHg 84%
    05:00 0°C° 0 mm 0 mps 631 mmHg 84%
    06:00 0°C° 0 mm 0 mps 631 mmHg 84%
    07:00 +3°C° 0 mm 1 mps 631 mmHg 79%
    08:00 +4°C° 0 mm 1 mps 631 mmHg 74%
    09:00 +6°C° 0 mm 1 mps 631 mmHg 70%
    10:00 +7°C° 0 mm 1 mps 631 mmHg 67%
    11:00 +9°C° 0 mm 1 mps 631 mmHg 63%
    12:00 +10°C° 0 mm 1 mps 631 mmHg 60%
    13:00 +9°C° 0 mm 2 mps 630 mmHg 61%
    14:00 +10°C° 0 mm 2 mps 630 mmHg 61%
    15:00 +10°C° 0 mm 2 mps 630 mmHg 62%
    16:00 +9°C° 0 mm 2 mps 630 mmHg 66%
    17:00 +8°C° 0 mm 2 mps 630 mmHg 70%
    18:00 +7°C° 0 mm 2 mps 629 mmHg 74%
    19:00 +6°C° 0 mm 2 mps 629 mmHg 76%
    20:00 +5°C° 0 mm 2 mps 630 mmHg 79%
    21:00 +3°C° 0 mm 3 mps 630 mmHg 82%
    22:00 +3°C° 0 mm 3 mps 629 mmHg 82%
    23:00 +2°C° 0 mm 3 mps 629 mmHg 83%
    Show more